MDT,Max TemperatureF,Mean TemperatureF,Min TemperatureF,Max Dew PointF,MeanDew PointF,Min DewpointF,Max Humidity, Mean Humidity, Min Humidity, Max Sea Level PressureIn, Mean Sea Level PressureIn, Min Sea Level PressureIn, Max VisibilityMiles, Mean VisibilityMiles, Min VisibilityMiles, Max Wind SpeedMPH, Mean Wind SpeedMPH, Max Gust SpeedMPH,PrecipitationIn, CloudCover, Events, WindDirDegrees
2013-5-1,51,37,23,21,17,10,80,51,22,30.64,30.48,30.26,10,10,3,17,10,26,0.00,0,,310
2013-5-2,59,42,26,21,19,16,74,43,20,30.64,30.53,30.38,10,9,2,12,3,,0.00,2,,147
2013-5-3,68,50,32,27,23,19,64,35,18,30.38,30.25,30.15,10,9,4,14,8,18,0.00,1,,142
2013-5-4,64,48,33,25,22,19,60,34,19,30.35,30.30,30.27,10,9,2,14,6,20,0.00,0,,64
2013-5-5,69,50,30,32,28,21,75,47,23,30.31,30.23,30.11,10,10,2,10,2,,0.00,0,,175
2013-5-6,73,53,33,34,30,27,81,46,20,30.13,30.06,29.97,10,9,2,10,2,17,0.00,0,,158
2013-5-7,78,56,35,36,30,27,70,37,15,29.98,29.91,29.85,10,8,2,10,3,16,0.00,0,,339
2013-5-8,64,55,46,43,35,21,71,49,31,30.24,30.12,29.95,10,8,2,18,13,22,0.00,1,,29
2013-5-9,68,54,41,30,25,21,53,33,21,30.27,30.21,30.14,10,9,3,12,8,18,0.00,2,,84
2013-5-10,62,50,37,43,27,19,75,43,22,30.40,30.22,30.07,10,8,2,28,10,33,0.00,1,,324
2013-5-11,60,44,28,25,19,16,74,38,17,30.49,30.36,30.20,10,10,2,10,6,,0.00,0,,41
2013-5-12,80,58,37,43,32,18,52,33,20,30.20,29.98,29.77,10,10,5,16,8,26,0.00,0,,182
2013-5-13,89,73,57,54,45,43,72,40,20,29.85,29.76,29.57,10,10,2,25,11,40,0.01,0,Thunderstorm,265
2013-5-14,73,62,51,55,41,36,88,48,27,29.90,29.82,29.65,10,10,8,32,17,47,0.00,1,Thunderstorm,292
2013-5-15,75,63,51,39,34,28,54,37,19,30.00,29.94,29.90,10,10,10,16,6,18,0.00,0,,294
2013-5-16,71,58,46,48,42,32,77,57,40,29.92,29.89,29.86,10,10,7,16,5,23,0.00,3,,144
2013-5-17,68,62,55,52,49,46,77,67,56,29.91,29.87,29.82,10,10,9,9,5,,0.00,7,,60
2013-5-18,71,63,55,55,53,50,88,73,56,29.88,29.85,29.81,10,10,8,14,8,21,0.00,5,,8
2013-5-19,60,56,51,54,50,46,88,81,67,29.90,29.87,29.84,10,10,7,26,15,34,0.55,8,,13
2013-5-20,57,52,48,52,48,43,94,84,67,30.00,29.93,29.84,10,7,2,26,21,36,0.96,7,,353
2013-5-21,59,52,46,46,42,36,82,67,55,30.07,30.03,30.00,10,10,10,21,10,28,0.01,8,,28
2013-5-22,69,56,44,46,40,34,87,57,28,30.19,30.10,30.06,10,10,10,20,6,26,0.00,1,,66
2013-5-23,71,60,48,46,43,39,82,56,35,30.22,30.12,29.98,10,10,10,28,12,37,0.00,1,,111
2013-5-24,71,61,51,50,45,43,71,56,35,30.02,29.93,29.87,10,10,9,23,13,31,0.00,3,,100
2013-5-25,71,58,44,61,50,39,93,74,56,30.03,29.96,29.87,10,10,6,22,7,30,0.21,4,Thunderstorm,61
2013-5-26,78,66,53,59,55,52,94,73,47,30.00,29.93,29.85,10,10,4,13,6,,0.02,3,,101
2013-5-27,64,58,53,59,55,52,94,85,73,29.88,29.78,29.68,10,10,4,21,9,28,0.99,6,Thunderstorm,269
2013-5-28,69,60,51,55,53,50,94,77,53,29.73,29.69,29.67,10,10,9,13,6,16,0.01,4,,304
2013-5-29,71,60,48,55,53,46,94,73,53,29.74,29.68,29.61,10,10,10,17,6,22,0.00,3,,43
2013-5-30,60,56,51,54,52,48,94,90,77,29.65,29.54,29.48,10,7,2,21,14,28,1.40,8,,22
2013-5-31,53,52,50,52,48,43,94,86,67,30.06,29.73,29.50,10,9,2,23,13,32,0.46,8,,4